North Vernon, Indiana, United States (47265)
Lat: 39.01N, Lon: 85.62W
Wx Zone: INZ072
Local Info
Past Weather Observations for Thursday, August 28, 2014

NOTE: This archive is for the closest National Weather Service station to North Vernon. Information may differ from the station used for current weather conditions.

Click here for Long-term Archive

Time Weather Temperature Dewpoint Humidity Pressure Winds Precip Visibility
23:53
Clear
70°F / 21°C 64°F / 18°C 83% 30.06 in
(1018 mb)
E 5.8 mph
(E 9 kph)
- 10SM
22:53
Clear
72°F / 22°C 64°F / 18°C 78% 30.06 in
(1018 mb)
E 5.8 mph
(E 9 kph)
- 10SM
21:53
Partly Cloudy
72°F / 22°C 66°F / 19°C 83% 30.06 in
(1018 mb)
E 5.8 mph
(E 9 kph)
- 10SM
20:53
Clear
72°F / 22°C 66°F / 19°C 83% 30.06 in
(1018 mb)
ENE 4.6 mph
(ENE 7 kph)
- 10SM
19:53
Clear
73°F / 23°C 68°F / 20°C 83% 30.04 in
(1017 mb)
ENE 5.8 mph
(ENE 9 kph)
- 10SM
18:53
Clear
79°F / 26°C 68°F / 20°C 70% 30.04 in
(1017 mb)
E 4.6 mph
(E 7 kph)
- 10SM
17:53
Clear
82°F / 28°C 66°F / 19°C 58% 30.04 in
(1017 mb)
E 5.8 mph
(E 9 kph)
- 10SM
16:53
Partly Cloudy
84°F / 29°C 66°F / 19°C 55% 30.04 in
(1017 mb)
E 6.9 mph
(E 11 kph)
- 10SM
15:53
Partly Cloudy
84°F / 29°C 68°F / 20°C 58% 30.04 in
(1017 mb)
E 8.1 mph
(E 13 kph)
- 10SM
14:53
Partly Cloudy
84°F / 29°C 68°F / 20°C 58% 30.06 in
(1018 mb)
E 4.6 mph
(E 7 kph)
- 10SM
13:53
Partly Cloudy
84°F / 29°C 68°F / 20°C 58% 30.06 in
(1018 mb)
Variable 4.6 mph
(Variable 7 kph)
- 10SM
12:53
Partly Cloudy
81°F / 27°C 66°F / 19°C 62% 30.09 in
(1019 mb)
SE 6.9 mph
(SE 11 kph)
- 10SM
11:53
Partly Cloudy
81°F / 27°C 66°F / 19°C 62% 30.09 in
(1019 mb)
SE 5.8 mph
(SE 9 kph)
- 10SM
10:53
Clear
79°F / 26°C 66°F / 19°C 65% 30.09 in
(1019 mb)
ESE 5.8 mph
(ESE 9 kph)
- 10SM
09:53
Clear
77°F / 25°C 64°F / 18°C 65% 30.09 in
(1019 mb)
E 5.8 mph
(E 9 kph)
- 10SM
08:53
Clear
73°F / 23°C 64°F / 18°C 74% 30.09 in
(1019 mb)
E 3.5 mph
(E 6 kph)
- 10SM
07:53
Clear
Hazy
70°F / 21°C 64°F / 18°C 83% 30.09 in
(1019 mb)
ENE 5.8 mph
(ENE 9 kph)
- 6SM
06:53
Clear
Fog And Mist
66°F / 19°C 63°F / 17°C 88% 30.09 in
(1019 mb)
NE 4.6 mph
(NE 7 kph)
- 4SM
05:53
Clear
Fog And Mist
64°F / 18°C 61°F / 16°C 88% 30.09 in
(1019 mb)
NNE 3.5 mph
(NNE 6 kph)
- 6SM
04:53
Clear
64°F / 18°C 63°F / 17°C 94% 30.09 in
(1019 mb)
NNE 3.5 mph
(NNE 6 kph)
- 8SM
03:53
Clear
66°F / 19°C 63°F / 17°C 88% 30.06 in
(1018 mb)
NNE 4.6 mph
(NNE 7 kph)
- 10SM
02:53
Clear
66°F / 19°C 63°F / 17°C 88% 30.06 in
(1018 mb)
NNE 5.8 mph
(NNE 9 kph)
- 10SM
01:53
Clear
68°F / 20°C 63°F / 17°C 83% 30.06 in
(1018 mb)
N 3.5 mph
(N 6 kph)
- 10SM
00:53
Clear
70°F / 21°C 64°F / 18°C 83% 30.06 in
(1018 mb)
NE 4.6 mph
(NE 7 kph)
- 10SM
Time Weather Temperature Dewpoint Humidity Pressure Winds Precip Visibility


Weather for websites

WeatherForYou.com, LLC is not responsible for any damages or problems caused by this service. Current weather conditions are obtained from the closest station including government and personal stations which may have varying degrees of accuracy. Weather forecasts are derived from the NOAA NDFD. Like all things, this site belongs to Jesus Christ... He just trusts me to maintain it. If you have any questions or comments email webmaster@weatherforyou.com

Copyright © 2014, WeatherForYou.com LLC. All rights reserved.